DELTA 1 DEB, 14529

Orbit data source: Space-Track

DELTA 1 DEB, 14529 is space debris in LEO originally from a launch on Thu, 14 Jul 1977 UTC launched from the Air Force Eastern Test Range (AFETR). Debris objects in space refer to the collection of defunct objects orbiting the Earth. Examples of debris include non-operational satellites, rocket bodies, and fragments generated from explosions, collisions, or faulty payload assembly.

Loading next visibility...
Identifier
14529, 1977-065FQ
Orbit
LEO
Country
Flag of USUS
Related business
Manufacturer
Unknown
Mission
Spacecraft
Bus & Motor
Unknown
Mass
Unknown
Launch date (UTC)
1977-07-14 (49 years ago)
Launch vehicle
Unknown
Launch site
Air Force Eastern Test Range (AFETR)
Object type
Payload
Rocket body
Debris
Shape & HBR
Unknown shape, 0.1 m
Radar Cross Section
Small (<0.1 m²)

Expand to show TLE details & history
Last TLE update: 2 days ago

TLE from 2 days ago
0 DELTA 1 DEB
1 14529U 77065FQ  26131.80012254  .00001595  00000-0  49062-2 0  9994
2 14529  29.0496   0.7498 0615369 123.7538 242.3167 12.51751464485604
Epoch: 2026-05-11T19:12Z
TLE epoch observation values (Epoch: 2026-05-11T19:12:10.587Z)
Latitude
-0.00004°
Longitude
-156.87804°
Altitude
1,701.908 km
Speed
6.916 km/s
True Right ascension
00h 02m 59s
True Declination
0° 00' 00"
Sunlit
Object was in daylight at epoch
Visualization orbit readout
Latitude
Unknown
Longitude
Unknown
Altitude
Unknown
Speed
Unknown
Apparent Right ascension
Unknown
Apparent Declination
Unknown
Sunlit
N/A
Visualization observer readout
Local Sidereal Time
18:20:20
Azimuth
Unknown
Elevation
Unknown
Doppler factor
Unknown
Orbital elements
Apogee altitude
1,943.224 km
Perigee altitude
978.451 km
Semi-major axis
7,838.974 km
Eccentricity
0.06154
Inclination
29.0496°
RAAN
0.7498°
Arg. of periapsis
123.7538°
True anomaly
236.29906°
Mean anomaly
242.3167°
Eccentric anomaly
239.28548°
Mean motion
3.12719 °/min
Orbital period
115.12 mins
BSTAR
0.0049062
Loading maneuver chart data...
Computing Atmospheric mass density...

Documentation

Showing up to 5 results
|